Location: Marcé
(47.5801°N, 0.3280°W)
Time: 23:45:14
(UTC+01:00)

S-56A Canister/Altair - Pass Details

Date: 07 December 2021
Orbit: 633 x 2499 km, 38.9° (Epoch: 16 January)

Event Time Altitude Azimuth Distance (km) Brightness Sun altitude
Rises 00:29:54 0° 237° (WSW) 5,512 - -64.6°
Reaches altitude 10° 00:34:11 10° 231° (SW) 4,232 - -64.8°
Maximum altitude 00:43:50 40° 168° (SSE) 1,961 - -65.0°
Drops below altitude 10° 00:50:28 10° 102° (ESE) 2,911 - -65.0°
Sets 00:52:53 0° 94° (E) 3,660 - -65.0°
